sat.trackr.live / text

‹ back to catalog

STARLINK-6348

NORAD 57360 · 2023-099AJ

PAYLOAD ACTIVE UNKNOWN

§ Identity

Operator
Country
US
Launch date
2023-07-16
Launch site
AFETR
Launch vehicle
Mass (kg)
RCS (m²)

Purposes: comms

External: N2YO · Heavens-Above · Gunter

§ Orbital elements

Epoch: 2026-09-20T14:39:08.780256Z

Period
94.27 min
Inclination
43.0036°
Eccentricity
0.0001549
Mean motion
15.27580023 rev/d
Perigee alt
482.0 km
Apogee alt
484.1 km
Semi-major
6,861.2 km
B*
5.8114e-5
RAAN
220.5541°
Arg perigee
265.9855°
Mean anomaly
94.0819°
Rev number
17,601

§ Raw data

STARLINK-63481 57360U 23099AJ  26263.61051829  .00001337  00000+0  58114-4 0  99912 57360  43.0036 220.5541 0001549 265.9855  94.0819 15.27580023176016

JSON: /api/v1/satellites/57360 · /tle

For live sub-satellite position, see the globe view (requires WebGL).

§ Visibility from observer

Set your observer location to see the next 7 days of passes ≥ 10°. The values pass through the URL so the page stays shareable.

No JS? Fill the form by hand. The geolocation button needs JavaScript.